Location: Unspecified
(37.6100°N, 2.7800°W)
Time: 23:03:34
(UTC+00:00)

N. Korean satellite - Visible Passes

Search period start: 20 October 2018 00:00
Search period end: 30 October 2018 00:00
Orbit: 459 x 510 km, 97.2° (Epoch: 20 October)

Date Brightness Start Highest point End Pass type
(mag) Time Alt. Az. Time Alt. Az. Time Alt. Az.
20 Oct 10.3 18:55:24 10° WSW 18:57:01 12° W 18:58:40 10° WNW visible
21 Oct 9.2 18:29:21 10° SSW 18:32:27 25° W 18:35:35 10° NW visible
22 Oct 7.6 18:04:19 10° S 18:07:57 53° W 18:11:38 10° NNW visible
23 Oct 10.2 05:34:32 10° ENE 05:36:26 14° E 05:38:19 10° SE visible
24 Oct 10.2 18:50:43 10° SW 18:52:44 14° W 18:54:46 10° WNW visible
25 Oct 9.0 18:24:56 10° SSW 18:28:10 28° W 18:31:25 10° NW visible
26 Oct 9.3 05:53:42 10° NE 05:56:41 24° E 05:59:37 10° SSE visible
26 Oct 7.3 18:00:00 10° S 18:03:40 60° W 18:07:23 10° NNW visible
27 Oct 10.3 05:30:40 10° ENE 05:32:05 12° E 05:33:29 10° ESE visible
28 Oct 10.0 18:46:06 10° SW 18:48:24 16° W 18:50:44 10° NW visible
29 Oct 8.7 18:20:30 10° SSW 18:23:50 31° W 18:27:13 10° NNW visible
